Location: Ward Pound Ridge Reservation
(41.2500°N, 73.6000°W)
Time: 13:03:37
(UTC-05:00)

Hubble Space Telescope - Pass Details

Date: 09 October 2017
Orbit: 537 x 541 km, 28.5° (Epoch: 14 December)

Event Time Altitude Azimuth Distance (km) Brightness Sun altitude
Exits shadow 05:18:19 11° 185° (S) 1,720 3.2 -19.8°
Drops below altitude 10° 05:19:09 10° 173° (S) 1,786 3.4 -19.7°
Sets 05:22:58 0° 138° (SE) 2,676 4.8 -19.0°
